Red Oak, IA

2:51 PM CDT on May 20, 2018 (GMT -0500)
Red Oak Municipal

Weather History for KRDK - January, 2014

Change the Weather History Date:

Wednesday, January 29, 2014

  Actual Average Record
Temperature  
Mean Temperature 19 °F -  
Max Temperature 42 °F 35 °F 62 °F (2013)
Min Temperature -4 °F 13 °F -20 °F (1966)
Degree Days  
Heating Degree Days 46    
Moisture  
Dew Point 3 °F    
Average Humidity 52    
Maximum Humidity 78    
Minimum Humidity 27    
Precipitation  
Precipitation 0.00 in - - ()
Sea Level Pressure  
Sea Level Pressure 29.99 in    
Wind  
Wind Speed 7 mph (South)    
Max Wind Speed 25 mph    
Max Gust Speed 34 mph    
Visibility 10 miles    
Events Snow    
Averages and records for this station are not official NWS values.
T = Trace of Precipitation, MM = Missing Value Source: NWS Daily Summary

Daily Weather History Graph

Daily Weather History Graph

Search for Another Location

Airport or City:

Astronomy

Jan. 29, 2014 Rise Set
Actual Time 7:34 AM CST 5:34 PM CST
Civil Twilight 7:05 AM CST 6:03 PM CST
Nautical Twilight 6:32 AM CST 6:36 PM CST
Astronomical Twilight 5:59 AM CST 7:09 PM CST
Moon 6:11 AM CST (1/29) 4:35 PM CST (1/29)
Length of Visible Light 10h 58m
Length of Day
10h 00m
Waning Crescent, 2% of the Moon is Illuminated
Jan 29
Waning Crescent
Jan 30
New
Feb 6
First Quarter
Feb 14
Full
Feb 22
Last Quarter

Hourly Weather History & Observations

Time (CST) Temp. Windchill Dew Point Humidity Pressure Visibility Wind Dir Wind Speed Gust Speed Precip Events Conditions
12:15 AM -0.4 °F - -7.6 °F 72% 30.25 in 10.0 mi Calm Calm - N/A   Clear
12:35 AM -0.4 °F - -7.6 °F 72% 30.25 in 10.0 mi Calm Calm - N/A   Clear
12:55 AM -0.4 °F - -7.6 °F 72% 30.25 in 10.0 mi Calm Calm - N/A   Clear
1:15 AM -0.4 °F - -7.6 °F 72% 30.24 in 10.0 mi Calm Calm - N/A   Clear
1:35 AM -0.4 °F - -7.6 °F 72% 30.23 in 10.0 mi Calm Calm - N/A   Clear
1:55 AM -2.2 °F - -7.6 °F 78% 30.23 in 10.0 mi Calm Calm - N/A   Clear
2:15 AM -2.2 °F - -9.4 °F 71% 30.22 in 10.0 mi Calm Calm - N/A   Clear
2:35 AM -4.0 °F - -9.4 °F 78% 30.22 in 10.0 mi Calm Calm - N/A   Clear
2:55 AM -2.2 °F - -7.6 °F 78% 30.21 in 10.0 mi Calm Calm - N/A   Clear
3:15 AM -4.0 °F - -9.4 °F 78% 30.21 in 10.0 mi Calm Calm - N/A   Clear
3:35 AM -2.2 °F - -9.4 °F 71% 30.20 in 10.0 mi Calm Calm - N/A   Clear
3:55 AM -4.0 °F - -9.4 °F 78% 30.19 in 10.0 mi Calm Calm - N/A   Clear
4:15 AM -2.2 °F - -9.4 °F 71% 30.18 in 10.0 mi Calm Calm - N/A   Clear
4:35 AM -4.0 °F - -9.4 °F 78% 30.17 in 10.0 mi Calm Calm - N/A   Clear
4:55 AM -4.0 °F - -9.4 °F 78% 30.16 in 10.0 mi Calm Calm - N/A   Clear
5:15 AM -4.0 °F - -9.4 °F 78% 30.16 in 10.0 mi Calm Calm - N/A   Clear
5:35 AM -4.0 °F - -9.4 °F 78% 30.16 in 10.0 mi Calm Calm - N/A   Clear
5:55 AM -2.2 °F - -7.6 °F 78% 30.15 in 10.0 mi Calm Calm - N/A   Clear
6:15 AM -2.2 °F - -7.6 °F 78% 30.15 in 10.0 mi Calm Calm - N/A   Clear
6:35 AM -4.0 °F - -9.4 °F 78% 30.15 in 10.0 mi Calm Calm - N/A   Clear
6:55 AM -4.0 °F - -9.4 °F 78% 30.14 in 10.0 mi Calm Calm - N/A   Clear
7:15 AM -2.2 °F - -7.6 °F 78% 30.14 in 10.0 mi Calm Calm - N/A   Clear
7:35 AM -4.0 °F - -9.4 °F 78% 30.14 in 10.0 mi Calm Calm - N/A   Clear
7:55 AM -2.2 °F - -7.6 °F 78% 30.13 in 10.0 mi Calm Calm - N/A   Clear
8:15 AM -0.4 °F - -5.8 °F 78% 30.13 in 10.0 mi Calm Calm - N/A   Clear
8:35 AM 5.0 °F -4.1 °F -0.4 °F 78% 30.13 in 10.0 mi South 4.6 mph - N/A   Clear
8:55 AM 8.6 °F -2.6 °F 1.4 °F 73% 30.12 in 10.0 mi South 6.9 mph - N/A   Clear
9:15 AM 10.4 °F -4.1 °F 3.2 °F 73% 30.10 in 10.0 mi South 11.5 mph - N/A   Clear
9:35 AM 14.0 °F 0.5 °F 5.0 °F 67% 30.11 in 10.0 mi South 11.5 mph - N/A   Clear
9:55 AM 17.6 °F 5.7 °F 6.8 °F 63% 30.10 in 10.0 mi South 10.4 mph - N/A   Clear
10:15 AM 19.4 °F 7.2 °F 8.6 °F 63% 30.09 in 10.0 mi South 11.5 mph - N/A   Clear
10:35 AM 23.0 °F 10.1 °F 8.6 °F 54% 30.09 in 10.0 mi SSW 15.0 mph - N/A Snow Light Snow
10:55 AM 24.8 °F 11.9 °F 8.6 °F 50% 30.08 in 10.0 mi South 16.1 mph - N/A Snow Light Snow
11:15 AM 26.6 °F 13.8 °F 8.6 °F 47% 30.08 in 10.0 mi South 17.3 mph - N/A   Light Freezing Rain
11:35 AM 30.2 °F 18.1 °F 8.6 °F 40% 30.07 in 10.0 mi South 18.4 mph - N/A   Light Freezing Rain
11:55 AM 30.2 °F 19.3 °F 8.6 °F 40% 30.04 in 10.0 mi South 15.0 mph 21.9 mph N/A   Clear
12:15 PM 33.8 °F 23.5 °F 10.4 °F 38% 30.02 in 10.0 mi South 16.1 mph - N/A   Clear
12:35 PM 35.6 °F 24.5 °F 10.4 °F 35% 30.00 in 10.0 mi South 20.7 mph 26.5 mph N/A Snow Light Snow
12:55 PM 37.4 °F 27.5 °F 10.4 °F 33% 29.98 in 10.0 mi SSW 18.4 mph 26.5 mph N/A Snow Light Snow
1:15 PM 37.4 °F 26.6 °F 10.4 °F 33% 29.97 in 10.0 mi SSW 21.9 mph - N/A   Clear
1:35 PM 39.2 °F 28.5 °F 12.2 °F 33% 29.95 in 10.0 mi SSW 24.2 mph 32.2 mph N/A   Clear
1:55 PM 39.2 °F 28.7 °F 12.2 °F 33% 29.94 in 10.0 mi SSW 23.0 mph 29.9 mph N/A   Clear
2:15 PM 41.0 °F 31.6 °F 12.2 °F 31% 29.93 in 10.0 mi South 20.7 mph 28.8 mph N/A   Clear
2:35 PM 41.0 °F 31.1 °F 10.4 °F 29% 29.90 in 10.0 mi SSW 23.0 mph 29.9 mph N/A   Clear
2:55 PM 42.8 °F 33.1 °F 10.4 °F 27% 29.89 in 10.0 mi South 25.3 mph 32.2 mph N/A   Clear
3:15 PM 42.8 °F 33.1 °F 10.4 °F 27% 29.88 in 10.0 mi SSW 25.3 mph - N/A   Clear
3:35 PM 42.8 °F 34.0 °F 10.4 °F 27% 29.87 in 10.0 mi SSW 20.7 mph 33.4 mph N/A   Clear
3:55 PM 42.8 °F 34.0 °F 10.4 °F 27% 29.85 in 10.0 mi South 20.7 mph 34.5 mph N/A   Clear
4:15 PM 42.8 °F 33.5 °F 10.4 °F 27% 29.84 in 10.0 mi South 23.0 mph 31.1 mph N/A   Clear
4:35 PM 42.8 °F 33.8 °F 10.4 °F 27% 29.83 in 10.0 mi South 21.9 mph 29.9 mph N/A   Clear
4:55 PM 42.8 °F 35.1 °F 10.4 °F 27% 29.83 in 10.0 mi South 16.1 mph 27.6 mph N/A   Clear
5:15 PM 41.0 °F 33.1 °F 10.4 °F 29% 29.83 in 10.0 mi South 15.0 mph 21.9 mph N/A   Clear
5:35 PM 39.2 °F 30.2 °F 10.4 °F 31% 29.82 in 10.0 mi South 17.3 mph - N/A   Clear
5:55 PM 39.2 °F 30.5 °F 10.4 °F 31% 29.82 in 10.0 mi South 16.1 mph 23.0 mph N/A   Clear
6:15 PM 37.4 °F 28.5 °F 10.4 °F 33% 29.81 in 10.0 mi South 15.0 mph - N/A   Clear
6:35 PM 37.4 °F 28.2 °F 10.4 °F 33% 29.80 in 10.0 mi South 16.1 mph 24.2 mph N/A   Clear
6:55 PM 37.4 °F 27.5 °F 10.4 °F 33% 29.79 in 10.0 mi South 18.4 mph 27.6 mph N/A   Clear
7:15 PM 37.4 °F 27.5 °F 10.4 °F 33% 29.78 in 10.0 mi South 18.4 mph 25.3 mph N/A   Clear
7:35 PM 35.6 °F 24.8 °F 10.4 °F 35% 29.77 in 10.0 mi South 19.6 mph - N/A   Clear
7:55 PM 35.6 °F 24.5 °F 10.4 °F 35% 29.76 in 10.0 mi South 20.7 mph - N/A   Clear
8:15 PM 37.4 °F 27.5 °F 10.4 °F 33% 29.76 in 10.0 mi South 18.4 mph - N/A   Clear
8:35 PM 35.6 °F 26.6 °F 10.4 °F 35% 29.76 in 10.0 mi South 13.8 mph 20.7 mph N/A   Clear
8:55 PM 33.8 °F 24.3 °F 10.4 °F 38% 29.75 in 10.0 mi SSW 13.8 mph 20.7 mph N/A   Clear
9:15 PM 33.8 °F 22.8 °F 10.4 °F 38% 29.74 in 10.0 mi South 18.4 mph - N/A   Clear
9:35 PM 33.8 °F 23.9 °F 8.6 °F 35% 29.73 in 10.0 mi South 15.0 mph - N/A   Clear
9:55 PM 33.8 °F 23.5 °F 8.6 °F 35% 29.73 in 10.0 mi South 16.1 mph - N/A   Clear
10:15 PM 33.8 °F 23.2 °F 8.6 °F 35% 29.72 in 10.0 mi South 17.3 mph 25.3 mph N/A   Clear
10:35 PM 33.8 °F 23.5 °F 8.6 °F 35% 29.71 in 10.0 mi South 16.1 mph - N/A   Clear
10:55 PM 33.8 °F 22.8 °F 8.6 °F 35% 29.70 in 10.0 mi South 18.4 mph - N/A   Clear
11:15 PM 33.8 °F 21.6 °F 8.6 °F 35% 29.68 in 10.0 mi South 23.0 mph 29.9 mph N/A   Clear
11:35 PM 33.8 °F 21.9 °F 6.8 °F 32% 29.67 in 10.0 mi South 21.9 mph 28.8 mph N/A   Partly Cloudy
11:55 PM 35.6 °F 24.0 °F 6.8 °F 30% 29.66 in 10.0 mi South 23.0 mph - N/A   Clear